Location: *
(50.8160°S, 176.0219°W)
Time: 00:31:53
(UTC+00:00)

Cosmos 1025 Rocket - Pass Details

Date: 19 May 2026
Orbit: 587 x 608 km, 82.5° (Epoch: 9 June)

Event Time Altitude Azimuth Distance (km) Brightness Sun altitude
Exits shadow 17:02:00 31° 333° (NNW) 1,048 4.0 -21.3°
Drops below altitude 10° 17:04:26 10° 350° (N) 1,929 5.5 -20.9°
Sets 17:06:40 0° 355° (N) 2,822 6.5 -20.6°
